Find Kineis-3A

NORAD ID: 61223 Int'l Des: 2024-172 Owner: KINEIS Country: F operational
LEOCIRCULARRETROGRADESSO

Live Position

Loading 3D Globe...

About Kineis-3A

Description loading...

Upcoming Passes

Passes for default location (London). Set your location on the main map for personalized predictions.

Altitude History

Loading altitude history...

Two-Line Element Set

1 61223U 24172D 26106.66290618 .00001083 00000-0 17934-3 0 9992
2 61223 98.0396 197.3189 0000613 299.5639 60.5507 14.72269211 83720
Epoch: Apr 16, 2026 • Age: 20 hours

Current Status

Altitude 656.7 km
Velocity 7.53 km/s
Sub-Earth Point 3.00°N, 11.33°W
Launch Date Sep 20, 2024
Age 1.5 years
Type other

Technical Details

Classification Payload
Mass 28.00 kg
Dry Mass 28.00 kg
Total Mass 28.00 kg
Length 0.40 m
Diameter 0.20 m
Span 1.60 m
Shape Box+ 2 pan + ant
Manufacturer KINEIS
Bus Type Cubesat 16U
Phase Status In Orbit
Owner/State KINEIS/F

Most Searched